NKS1464 MMUN-SKRG

Flight info

Callsign NKS1464
Flight time N/A
Altitude 37000
Route TAKU2A TAKUX UM782 MEVUB UP406 AKPEK AKPE4C
Aircraft A320/M-VGDW/C

Departure

Time N/A
Airport Cancún International Airport (MMUN)

Arrival

Time 2026-04-25 05:22
Airport Jose Maria Córdova International Airport (SKRG)
Time Latitude Longitude Altitude Speed Heading
2026-04-25 03:30 16.10097 -81.80615 36964 ft 489 kts 134°
2026-04-25 03:31 16.05413 -81.75491 36961 ft 489 kts 134°
2026-04-25 03:31 16.00717 -81.70378 36960 ft 488 kts 134°
2026-04-25 03:32 15.96020 -81.65267 36961 ft 489 kts 135°
2026-04-25 03:32 15.91322 -81.60162 36959 ft 488 kts 134°
2026-04-25 03:33 15.86670 -81.55090 36959 ft 488 kts 134°
2026-04-25 03:33 15.81981 -81.49981 36958 ft 488 kts 135°
2026-04-25 03:34 15.77284 -81.44881 36957 ft 488 kts 135°
2026-04-25 03:34 15.72590 -81.39789 36958 ft 488 kts 135°
2026-04-25 03:35 15.67897 -81.34700 36958 ft 488 kts 135°
2026-04-25 03:35 15.63207 -81.29602 36958 ft 488 kts 135°
2026-04-25 03:36 15.58543 -81.24552 36960 ft 487 kts 135°
2026-04-25 03:36 15.53852 -81.19480 36959 ft 487 kts 135°
2026-04-25 03:37 15.49164 -81.14409 36957 ft 487 kts 135°
2026-04-25 03:37 15.44477 -81.09338 36954 ft 487 kts 135°
2026-04-25 03:38 15.39782 -81.04265 36955 ft 487 kts 135°
2026-04-25 03:38 15.35093 -80.99200 36953 ft 487 kts 136°
2026-04-25 03:39 15.30397 -80.94133 36954 ft 487 kts 136°
2026-04-25 03:39 15.25701 -80.89070 36954 ft 487 kts 136°
2026-04-25 03:40 15.21001 -80.84014 36955 ft 487 kts 136°
2026-04-25 03:40 15.16301 -80.78959 36957 ft 487 kts 136°
2026-04-25 03:41 15.11611 -80.73900 36960 ft 487 kts 136°
2026-04-25 03:41 15.06952 -80.68883 36961 ft 487 kts 136°
2026-04-25 03:42 15.02251 -80.63836 36959 ft 487 kts 136°
2026-04-25 03:42 14.97249 -80.59174 36960 ft 483 kts 145°
2026-04-25 03:43 14.91963 -80.54885 36962 ft 483 kts 144°
2026-04-25 03:43 14.86689 -80.50592 36964 ft 482 kts 145°
2026-04-25 03:44 14.81415 -80.46309 36964 ft 482 kts 145°
2026-04-25 03:44 14.76145 -80.42029 36968 ft 481 kts 145°
2026-04-25 03:45 14.70882 -80.37757 36966 ft 481 kts 145°
2026-04-25 03:45 14.65626 -80.33496 36966 ft 480 kts 145°
2026-04-25 03:46 14.60407 -80.29266 36968 ft 480 kts 145°
2026-04-25 03:46 14.55158 -80.25020 36968 ft 479 kts 146°
2026-04-25 03:47 14.50768 -80.21468 36968 ft 478 kts 146°
2026-04-25 03:47 14.45538 -80.17234 36969 ft 478 kts 146°
2026-04-25 03:48 14.40349 -80.13037 36969 ft 477 kts 146°
2026-04-25 03:48 14.35127 -80.08824 36968 ft 476 kts 146°
2026-04-25 03:49 14.29918 -80.04612 36970 ft 476 kts 146°
2026-04-25 03:49 14.24713 -80.00409 36967 ft 475 kts 146°
2026-04-25 03:50 14.19504 -79.96215 36967 ft 475 kts 146°
2026-04-25 03:50 14.14301 -79.92028 36967 ft 474 kts 146°
2026-04-25 03:51 14.09104 -79.87847 36964 ft 474 kts 146°
2026-04-25 03:51 14.03910 -79.83670 36964 ft 473 kts 146°
2026-04-25 03:52 13.98720 -79.79497 36963 ft 473 kts 146°
2026-04-25 03:52 13.93538 -79.75318 36963 ft 473 kts 146°
2026-04-25 03:53 13.88396 -79.71174 36962 ft 472 kts 146°
2026-04-25 03:53 13.83220 -79.67013 36959 ft 472 kts 146°
2026-04-25 03:54 13.78033 -79.62863 36958 ft 472 kts 146°
2026-04-25 03:54 13.72853 -79.58707 36963 ft 472 kts 146°
2026-04-25 03:55 13.67681 -79.54547 36969 ft 471 kts 146°
2026-04-25 03:55 13.62513 -79.50404 36966 ft 471 kts 146°
2026-04-25 03:56 13.57345 -79.46276 36965 ft 470 kts 146°
2026-04-25 03:56 13.52179 -79.42153 36969 ft 470 kts 146°
2026-04-25 03:57 13.47024 -79.38027 36972 ft 470 kts 146°
2026-04-25 03:57 13.41873 -79.33901 36973 ft 469 kts 147°
2026-04-25 03:58 13.36760 -79.29821 36974 ft 468 kts 146°
2026-04-25 03:58 13.31622 -79.25719 36974 ft 467 kts 146°
2026-04-25 03:59 13.26492 -79.21618 36973 ft 467 kts 147°
2026-04-25 03:59 13.21366 -79.17522 36969 ft 466 kts 147°
2026-04-25 04:00 13.16243 -79.13435 36972 ft 466 kts 147°
2026-04-25 04:00 13.11123 -79.09360 36970 ft 466 kts 147°
2026-04-25 04:01 13.06008 -79.05290 36973 ft 465 kts 147°
2026-04-25 04:01 13.00902 -79.01223 36974 ft 464 kts 147°
2026-04-25 04:02 12.95800 -78.97154 36974 ft 464 kts 147°
2026-04-25 04:02 12.90703 -78.93097 36971 ft 464 kts 147°
2026-04-25 04:03 12.85637 -78.89069 36974 ft 463 kts 147°
2026-04-25 04:03 12.80551 -78.85028 36971 ft 462 kts 147°
2026-04-25 04:04 12.75465 -78.80990 36969 ft 462 kts 147°
2026-04-25 04:04 12.70384 -78.76961 36966 ft 462 kts 147°
2026-04-25 04:05 12.65307 -78.72939 36972 ft 461 kts 147°
2026-04-25 04:05 12.60237 -78.68916 36973 ft 461 kts 147°
2026-04-25 04:06 12.55170 -78.64903 36974 ft 460 kts 147°
2026-04-25 04:06 12.50110 -78.60890 36971 ft 459 kts 146°
2026-04-25 04:07 12.45081 -78.56904 36971 ft 458 kts 147°
2026-04-25 04:07 12.40043 -78.52916 36969 ft 458 kts 147°
2026-04-25 04:08 12.35004 -78.48937 36967 ft 457 kts 147°
2026-04-25 04:08 12.29971 -78.44957 36970 ft 457 kts 147°
2026-04-25 04:09 12.24945 -78.40980 36969 ft 457 kts 147°
2026-04-25 04:09 12.19959 -78.37033 36972 ft 456 kts 147°
2026-04-25 04:10 12.14950 -78.33074 36963 ft 455 kts 147°
2026-04-25 04:10 12.09927 -78.29120 36966 ft 455 kts 147°
2026-04-25 04:11 12.02402 -78.23198 36970 ft 455 kts 147°
2026-04-25 04:12 11.97392 -78.19244 36975 ft 455 kts 147°
2026-04-25 04:12 11.92388 -78.15299 36976 ft 454 kts 147°
2026-04-25 04:13 11.87389 -78.11364 36972 ft 453 kts 147°
2026-04-25 04:13 11.82423 -78.07461 36970 ft 453 kts 147°
2026-04-25 04:14 11.77433 -78.03536 36967 ft 453 kts 147°
2026-04-25 04:14 11.72442 -77.99611 36966 ft 453 kts 147°
2026-04-25 04:15 11.67444 -77.95687 36967 ft 453 kts 147°
2026-04-25 04:15 11.62449 -77.91758 36965 ft 453 kts 147°
2026-04-25 04:16 11.57463 -77.87837 36963 ft 453 kts 147°
2026-04-25 04:16 11.52465 -77.83931 36961 ft 452 kts 147°
2026-04-25 04:17 11.47479 -77.80022 36958 ft 452 kts 146°
2026-04-25 04:17 11.42494 -77.76105 36956 ft 452 kts 146°
2026-04-25 04:18 11.37513 -77.72197 36956 ft 452 kts 146°
2026-04-25 04:18 11.32524 -77.68293 36956 ft 452 kts 146°
2026-04-25 04:19 11.27540 -77.64384 36958 ft 452 kts 146°
2026-04-25 04:19 11.22558 -77.60483 36961 ft 452 kts 146°
2026-04-25 04:20 11.17572 -77.56589 36961 ft 451 kts 146°
2026-04-25 04:20 11.12586 -77.52701 36963 ft 451 kts 146°
2026-04-25 04:21 11.07642 -77.48836 36962 ft 451 kts 146°
2026-04-25 04:21 11.02669 -77.44943 36962 ft 451 kts 146°
2026-04-25 04:22 10.97711 -77.41044 36962 ft 451 kts 144°
2026-04-25 04:22 10.92960 -77.36859 36963 ft 452 kts 141°
2026-04-25 04:23 10.88365 -77.32485 36961 ft 452 kts 140°
2026-04-25 04:23 10.83746 -77.28142 36960 ft 452 kts 141°
2026-04-25 04:24 10.79083 -77.23871 36958 ft 451 kts 141°
2026-04-25 04:24 10.74398 -77.19622 36958 ft 451 kts 141°
2026-04-25 04:25 10.69725 -77.15367 36960 ft 451 kts 141°
2026-04-25 04:25 10.65092 -77.11128 36963 ft 451 kts 141°
2026-04-25 04:26 10.60431 -77.06864 36962 ft 451 kts 141°
2026-04-25 04:26 10.55768 -77.02607 36962 ft 450 kts 141°
2026-04-25 04:27 10.51109 -76.98352 36960 ft 450 kts 141°
2026-04-25 04:27 10.46453 -76.94102 36960 ft 450 kts 141°
2026-04-25 04:28 10.41797 -76.89851 36960 ft 450 kts 141°
2026-04-25 04:28 10.37175 -76.85639 36959 ft 449 kts 141°
2026-04-25 04:29 10.32521 -76.81404 36955 ft 449 kts 141°
2026-04-25 04:29 10.27863 -76.77167 36955 ft 449 kts 141°
2026-04-25 04:30 10.23209 -76.72932 36956 ft 449 kts 141°
2026-04-25 04:30 10.18563 -76.68698 36958 ft 449 kts 141°
2026-04-25 04:31 10.13946 -76.64499 36959 ft 448 kts 141°
2026-04-25 04:31 10.09300 -76.60278 36959 ft 449 kts 141°
2026-04-25 04:32 10.04645 -76.56045 36962 ft 449 kts 141°
2026-04-25 04:32 10.00001 -76.51817 36962 ft 448 kts 141°
2026-04-25 04:33 9.95349 -76.47602 36964 ft 448 kts 141°
2026-04-25 04:33 9.90711 -76.43397 36962 ft 447 kts 141°
2026-04-25 04:34 9.86079 -76.39188 36962 ft 447 kts 141°
2026-04-25 04:34 9.81446 -76.34985 36963 ft 447 kts 141°
2026-04-25 04:35 9.76842 -76.30816 36961 ft 447 kts 141°
2026-04-25 04:35 9.72205 -76.26621 36960 ft 447 kts 141°
2026-04-25 04:36 9.67574 -76.22421 36962 ft 447 kts 141°
2026-04-25 04:36 9.62936 -76.18215 36962 ft 447 kts 141°
2026-04-25 04:37 9.58079 -76.14348 36960 ft 442 kts 153°
2026-04-25 04:37 9.52387 -76.12158 36959 ft 437 kts 170°
2026-04-25 04:38 9.46424 -76.10969 36951 ft 439 kts 170°
2026-04-25 04:38 9.40352 -76.09768 36953 ft 448 kts 170°
2026-04-25 04:39 9.35257 -76.08751 36958 ft 448 kts 170°
2026-04-25 04:39 9.28140 -76.07337 37017 ft 449 kts 170°
2026-04-25 04:40 9.23007 -76.06314 37020 ft 448 kts 169°
2026-04-25 04:40 9.16889 -76.05089 37018 ft 448 kts 169°
2026-04-25 04:41 9.10778 -76.03871 37018 ft 448 kts 169°
2026-04-25 04:41 9.04665 -76.02659 37017 ft 448 kts 169°
2026-04-25 04:42 8.98559 -76.01442 37018 ft 447 kts 169°
2026-04-25 04:42 8.92495 -76.00235 37018 ft 447 kts 169°
2026-04-25 04:43 8.86396 -75.99021 37017 ft 447 kts 169°
2026-04-25 04:43 8.80300 -75.97808 37015 ft 446 kts 169°
2026-04-25 04:44 8.74211 -75.96599 37015 ft 446 kts 169°
2026-04-25 04:44 8.68120 -75.95396 37015 ft 446 kts 169°
2026-04-25 04:45 8.62035 -75.94192 37014 ft 445 kts 169°
2026-04-25 04:45 8.55951 -75.92981 37014 ft 446 kts 169°
2026-04-25 04:46 8.49858 -75.91771 37012 ft 446 kts 169°
2026-04-25 04:46 8.43762 -75.90559 37013 ft 446 kts 169°
2026-04-25 04:47 8.37669 -75.89350 37014 ft 446 kts 169°
2026-04-25 04:47 8.31573 -75.88135 37012 ft 446 kts 169°
2026-04-25 04:48 8.25476 -75.86930 37012 ft 446 kts 169°
2026-04-25 04:48 8.19384 -75.85725 37012 ft 446 kts 169°
2026-04-25 04:49 8.13337 -75.84522 37013 ft 446 kts 169°
2026-04-25 04:49 8.07237 -75.83310 37017 ft 446 kts 169°
2026-04-25 04:50 8.01147 -75.82107 37018 ft 446 kts 169°
2026-04-25 04:50 7.95044 -75.80938 37017 ft 446 kts 170°
2026-04-25 04:51 7.88926 -75.79883 37018 ft 446 kts 171°
2026-04-25 04:51 7.82798 -75.78854 37017 ft 446 kts 170°
2026-04-25 04:52 7.76711 -75.77805 37023 ft 446 kts 170°
2026-04-25 04:52 7.70587 -75.76727 37055 ft 446 kts 170°
2026-04-25 04:53 7.64467 -75.75660 37061 ft 446 kts 170°
2026-04-25 04:53 7.58342 -75.74593 37062 ft 446 kts 170°
2026-04-25 04:54 7.52225 -75.73528 37062 ft 446 kts 170°
2026-04-25 04:54 7.46099 -75.72462 37094 ft 446 kts 170°
2026-04-25 04:55 7.39980 -75.71400 37100 ft 446 kts 170°
2026-04-25 04:55 7.33894 -75.70338 37095 ft 447 kts 169°
2026-04-25 04:56 7.27767 -75.69266 37105 ft 446 kts 170°
2026-04-25 04:56 7.21633 -75.68208 37113 ft 446 kts 169°
2026-04-25 04:57 7.15503 -75.67144 37125 ft 447 kts 169°
2026-04-25 04:57 7.09377 -75.66079 37141 ft 447 kts 169°
2026-04-25 04:58 7.03268 -75.65016 37180 ft 448 kts 169°
2026-04-25 04:58 6.97113 -75.63947 37181 ft 448 kts 169°
2026-04-25 04:59 6.90972 -75.62880 37191 ft 448 kts 169°
2026-04-25 04:59 6.84823 -75.61813 37182 ft 448 kts 169°
2026-04-25 05:00 6.78675 -75.60750 37211 ft 449 kts 169°
2026-04-25 05:00 6.72516 -75.59701 37211 ft 449 kts 169°
2026-04-25 05:00 6.69444 -75.59179 36931 ft 447 kts 169°
2026-04-25 05:01 6.66390 -75.58662 36382 ft 444 kts 169°
2026-04-25 05:01 6.63345 -75.58149 35762 ft 443 kts 169°
2026-04-25 05:01 6.60301 -75.57634 35036 ft 445 kts 169°
2026-04-25 05:01 6.57280 -75.57123 34237 ft 447 kts 169°
2026-04-25 05:02 6.54195 -75.56601 33326 ft 452 kts 169°
2026-04-25 05:02 6.51037 -75.56065 32379 ft 456 kts 169°
2026-04-25 05:02 6.47933 -75.55537 31399 ft 461 kts 169°
2026-04-25 05:02 6.44757 -75.54996 30347 ft 466 kts 170°
2026-04-25 05:03 6.41534 -75.54448 29255 ft 472 kts 170°
2026-04-25 05:03 6.38255 -75.54101 28131 ft 476 kts 178°
2026-04-25 05:03 6.34918 -75.54032 26915 ft 482 kts 179°
2026-04-25 05:03 6.31540 -75.53973 25682 ft 487 kts 179°
2026-04-25 05:04 6.28140 -75.53917 24595 ft 489 kts 179°
2026-04-25 05:04 6.24748 -75.53864 23663 ft 485 kts 178°
2026-04-25 05:04 6.21391 -75.53810 22747 ft 480 kts 179°
2026-04-25 05:04 6.18069 -75.53756 21841 ft 475 kts 179°
2026-04-25 05:05 6.14780 -75.53701 20981 ft 471 kts 179°
2026-04-25 05:05 6.11524 -75.53644 20158 ft 465 kts 179°
2026-04-25 05:05 6.08340 -75.53615 19355 ft 460 kts 180°
2026-04-25 05:05 6.05152 -75.53596 18566 ft 453 kts 180°
2026-04-25 05:06 6.02019 -75.53573 17760 ft 447 kts 180°
2026-04-25 05:06 5.98919 -75.53545 16952 ft 442 kts 180°
2026-04-25 05:06 5.95861 -75.53518 16159 ft 437 kts 180°
2026-04-25 05:06 5.92838 -75.53496 15400 ft 432 kts 180°
2026-04-25 05:07 5.89847 -75.53475 14665 ft 427 kts 180°
2026-04-25 05:07 5.86889 -75.53457 13962 ft 423 kts 180°
2026-04-25 05:07 5.83964 -75.53440 13269 ft 417 kts 180°
2026-04-25 05:07 5.81073 -75.53425 12553 ft 413 kts 180°
2026-04-25 05:08 5.78218 -75.53414 11844 ft 408 kts 180°
2026-04-25 05:08 5.75396 -75.53405 11243 ft 404 kts 180°
2026-04-25 05:08 5.72572 -75.53403 11037 ft 406 kts 180°
2026-04-25 05:08 5.69745 -75.53406 11022 ft 407 kts 180°
2026-04-25 05:09 5.66912 -75.53410 11043 ft 407 kts 180°
2026-04-25 05:09 5.64084 -75.53233 11273 ft 409 kts 168°
2026-04-25 05:09 5.61487 -75.52286 11513 ft 392 kts 152°
2026-04-25 05:09 5.59379 -75.50739 11752 ft 360 kts 135°
2026-04-25 05:10 5.57869 -75.48860 11948 ft 335 kts 121°
2026-04-25 05:10 5.56919 -75.46809 12029 ft 316 kts 107°
2026-04-25 05:10 5.56487 -75.44708 12044 ft 302 kts 94°
2026-04-25 05:10 5.56521 -75.42634 11999 ft 294 kts 81°
2026-04-25 05:11 5.56979 -75.40691 11987 ft 281 kts 69°
2026-04-25 05:11 5.57778 -75.38950 11976 ft 268 kts 58°
2026-04-25 05:11 5.58844 -75.37462 11989 ft 257 kts 47°
2026-04-25 05:12 5.61609 -75.35277 11992 ft 249 kts 26°
2026-04-25 05:12 5.63172 -75.34623 11978 ft 240 kts 16°
2026-04-25 05:12 5.64789 -75.34261 11984 ft 238 kts
2026-04-25 05:12 5.66416 -75.34186 11990 ft 237 kts 356°
2026-04-25 05:13 5.68046 -75.34392 11990 ft 236 kts 346°
2026-04-25 05:13 5.69617 -75.34874 11997 ft 236 kts 337°
2026-04-25 05:13 5.71139 -75.35502 11999 ft 236 kts 337°
2026-04-25 05:13 5.72662 -75.36127 12002 ft 236 kts 337°
2026-04-25 05:14 5.74185 -75.36750 12007 ft 237 kts 337°
2026-04-25 05:14 5.75708 -75.37374 12011 ft 236 kts 337°
2026-04-25 05:14 5.77231 -75.37994 12016 ft 236 kts 337°
2026-04-25 05:15 5.80279 -75.39239 12022 ft 236 kts 337°
2026-04-25 05:15 5.81798 -75.39863 12032 ft 236 kts 337°
2026-04-25 05:15 5.83320 -75.40488 12042 ft 236 kts 337°
2026-04-25 05:15 5.84844 -75.41112 12040 ft 237 kts 337°
2026-04-25 05:16 5.86403 -75.41648 12043 ft 237 kts 343°
2026-04-25 05:16 5.88012 -75.42016 11985 ft 237 kts 350°
2026-04-25 05:16 5.89625 -75.42204 11959 ft 237 kts 356°
2026-04-25 05:16 5.91213 -75.42236 11968 ft 217 kts 359°
2026-04-25 05:17 5.92641 -75.42235 11965 ft 193 kts 359°
2026-04-25 05:17 5.93917 -75.42237 11978 ft 176 kts 359°
2026-04-25 05:17 5.95117 -75.42242 11928 ft 171 kts 359°
2026-04-25 05:17 5.96300 -75.42242 11695 ft 169 kts 359°
2026-04-25 05:18 5.97472 -75.42242 11366 ft 168 kts 359°
2026-04-25 05:18 5.98636 -75.42239 10994 ft 167 kts 360°
2026-04-25 05:18 5.99797 -75.42243 10596 ft 166 kts 359°
2026-04-25 05:18 6.00944 -75.42251 10231 ft 163 kts 359°
2026-04-25 05:19 6.02074 -75.42234 9825 ft 162 kts
2026-04-25 05:19 6.03191 -75.42214 9410 ft 160 kts
2026-04-25 05:19 6.04297 -75.42227 9035 ft 157 kts
2026-04-25 05:19 6.05388 -75.42239 8868 ft 157 kts
2026-04-25 05:20 6.06485 -75.42247 8696 ft 158 kts
2026-04-25 05:20 6.07583 -75.42253 8438 ft 159 kts 360°
2026-04-25 05:20 6.08688 -75.42253 8187 ft 159 kts
2026-04-25 05:20 6.09792 -75.42247 7985 ft 159 kts
2026-04-25 05:21 6.10902 -75.42245 7780 ft 159 kts 359°
2026-04-25 05:21 6.11988 -75.42255 7505 ft 157 kts 359°
2026-04-25 05:21 6.13079 -75.42272 7324 ft 157 kts 359°
2026-04-25 05:21 6.14169 -75.42283 7144 ft 156 kts 360°
2026-04-25 05:22 6.15257 -75.42295 6973 ft 156 kts 359°
2026-04-25 05:22 6.16200 -75.42305 6967 ft 113 kts 359°
2026-04-25 05:22 6.16861 -75.42313 6985 ft 79 kts 360°
2026-04-25 05:22 6.17333 -75.42316 6994 ft 49 kts 359°
2026-04-25 05:23 6.17521 -75.42325 6992 ft 19 kts 348°
2026-04-25 05:23 6.17568 -75.42403 6994 ft 13 kts 270°
2026-04-25 05:23 6.17538 -75.42481 6996 ft 13 kts 216°
2026-04-25 05:23 6.17442 -75.42491 6992 ft 15 kts 180°
2026-04-25 05:24 6.17326 -75.42492 6993 ft 19 kts 180°
2026-04-25 05:24 6.17194 -75.42497 6990 ft 13 kts 197°
2026-04-25 05:24 6.17171 -75.42557 6990 ft 8 kts 275°
2026-04-25 05:24 6.17193 -75.42609 6990 ft 8 kts 308°
2026-04-25 05:25 6.17206 -75.42620 6990 ft 1 kts 327°
2026-04-25 05:25 6.17224 -75.42619 6986 ft 4 kts
2026-04-25 05:25 6.17251 -75.42618 6991 ft 4 kts
2026-04-25 05:25 6.17275 -75.42617 6991 ft 3 kts 358°
2026-04-25 05:26 6.17285 -75.42620 6992 ft 0 kts 344°
2026-04-25 05:26 6.17314 -75.42637 6992 ft 7 kts 310°
2026-04-25 05:26 6.17314 -75.42679 6992 ft 7 kts 226°
2026-04-25 05:27 6.17279 -75.42716 6991 ft 2 kts 228°
2026-04-25 05:27 6.17270 -75.42726 6985 ft 0 kts 228°